www.pogodaiklimat.ru
ПОГОДА в Лоренсевилле
Время
и дата
14:56 26.09
15:56 26.09
16:56 26.09
17:56 26.09
18:56 26.09
19:56 26.09
20:56 26.09
21:56 26.09
22:56 26.09
23:56 26.09
00:56 27.09
01:56 27.09
02:56 27.09
03:56 27.09
04:56 27.09
05:56 27.09
06:56 27.09
07:56 27.09
08:56 27.09
09:56 27.09
10:56 27.09
11:56 27.09
12:56 27.09
13:56 27.09
14:56 27.09
15:56 27.09
16:56 27.09
17:56 27.09
18:56 27.09
19:56 27.09
20:56 27.09
21:56 27.09
22:56 27.09
23:56 27.09
00:56 28.09
01:56 28.09
02:56 28.09
03:56 28.09
04:56 28.09
05:56 28.09
06:56 28.09
07:56 28.09
08:56 28.09
09:56 28.09
10:56 28.09
11:56 28.09
12:56 28.09
13:56 28.09
Ветер
(напр.,м/с)
Видим. Явления Облачность Т
(С)
Тd
(С)
f
(%)
Тe
(С)
Тes
(С)
Комфортность P
(гПа)
Po
(гПа)
Тmin
(С)
Tmax
(С)
R
(мм)
R24
(мм)
S
(см)
нст 3 н/о ясно +26.1 +7.8 31 +26 +36 жарко 1013.0 974.5
СЗ 4 н/о ясно +25.6 +7.2 31 +26 +32 жарко 1012.9 974.5
нст 2 16 км ясно +25.0 +7.2 32 +25 +31 комфорт 1013.2 974.5
нст 3 16 км ясно +23.9 +7.8 36 +24 +26 комфорт 1013.5 974.9
нст 2 16 км ясно +21.7 +8.9 44 +23 +23 комфорт 1013.9 975.2 +21.7 +26.1
штиль 0 16 км ясно +20.0 +9.4 50 +21 +21 комфорт 1014.8 976.2
штиль 0 16 км ясно +18.3 +10.0 58 +19 +19 1015.3 976.5
штиль 0 16 км ясно +16.7 +10.6 67 +17 +17 1015.8 977.2
штиль 0 16 км ясно +15.6 +10.6 72 +15 +15 1016.4 977.5
штиль 0 16 км ясно +15.0 +9.4 69 +15 +15 1016.4 977.8
штиль 0 16 км ясно +13.9 +8.3 69 +14 +14 1016.2 977.5 +13.9 +21.1
штиль 0 16 км ясно +13.9 +7.2 64 +14 +14 1016.1 977.5
штиль 0 16 км ясно +12.8 +7.2 69 +12 +12 1016.3 977.5
штиль 0 16 км ясно +12.2 +7.2 71 +12 +12 1016.2 977.5
штиль 0 16 км ясно +12.2 +6.7 69 +12 +12 1016.4 977.5
штиль 0 16 км ясно +10.6 +5.6 71 +10 +10 1016.8 977.8
штиль 0 16 км ясно +11.1 +5.6 69 +11 +11 1017.2 978.1 +10.0 +14.4
штиль 0 16 км ясно +13.9 +6.1 59 +14 +14 1017.9 978.8
нст 2 16 км ясно +17.2 +5.6 46 +18 +19 1018.6 979.8
нст 2 16 км ясно +19.4 +3.9 36 +20 +25 1018.9 979.8
нст 2 16 км ясно +20.6 +1.7 28 +21 +30 комфорт 1018.9 979.8
нст 2 16 км ясно +22.2 +1.7 26 +22 +34 комфорт 1018.6 979.8
нст 3 16 км ясно +22.8 0.0 22 +22 +33 комфорт 1018.4 979.4 +11.1 +23.3
нст 3 16 км ясно +23.9 +3.3 26 +23 +35 комфорт 1017.6 978.8
нст 3 16 км ясно +23.9 +1.7 23 +23 +33 комфорт 1017.7 978.8
нст 2 16 км ясно +23.3 +1.7 24 +23 +32 комфорт 1017.9 978.8
нст 3 16 км ясно +22.2 +2.2 27 +22 +26 комфорт 1018.0 979.1
нст 2 16 км ясно +21.1 +2.2 29 +21 +23 комфорт 1018.7 979.8
штиль 0 16 км ясно +18.3 +3.9 38 +18 +19 1019.6 980.4 +18.3 +24.4
штиль 0 16 км ясно +16.7 +5.0 46 +17 +17 1020.4 981.1
штиль 0 16 км ясно +15.0 +5.6 53 +15 +15 1020.6 981.4
штиль 0 16 км ясно +15.0 +4.4 49 +15 +15 1020.7 981.7
штиль 0 16 км ясно +14.4 +4.4 51 +14 +14 1021.2 982.0
нст 2 16 км ясно +15.0 +4.4 49 +15 +15 1020.6 981.7
штиль 0 16 км ясно +13.3 +4.4 55 +13 +13 1021.1 982.0 +12.8 +18.3
штиль 0 16 км ясно +11.1 +5.0 66 +11 +11 1021.4 982.4
штиль 0 16 км ясно +10.6 +5.0 68 +10 +10 1021.5 982.4
штиль 0 16 км ясно +8.9 +5.6 80 +8 +8 1021.9 982.7
штиль 0 16 км ясно +8.9 +6.1 83 +8 +8 1022.3 983.0
штиль 0 16 км ясно +7.2 +6.1 93 +6 +6 1022.5 983.0
штиль 0 16 км ясно +6.7 +5.6 93 +6 +6 1023.3 983.7 +6.7 +12.8
штиль 0 16 км ясно +12.8 +7.2 69 +12 +13 1023.5 984.0
нст 3 16 км ясно +17.2 +3.9 41 +17 +18 1024.0 984.6
В 4 16 км ясно +18.3 +3.3 37 +18 +21 1024.5 985.0
СВ 4 16 км ясно +19.4 +3.3 34 +20 +25 1024.2 985.0
нст 2 16 км ясно +20.6 +2.8 31 +22 +33 комфорт 1023.9 984.6
СВ 4 16 км ясно +21.7 +3.9 31 +22 +31 комфорт 1023.2 984.0 +6.7 +21.7
нст 3 16 км ясно +22.2 +3.9 30 +22 +34 комфорт 1022.2 983.0
Местоположение метеостанции Gwinnett County Airport: широта 33.9800 долгота -83.9600 высота над уровнем моря 323 м.
В архиве по умолчанию представлена погода в Лоренсевилле за последние 1-2 суток. Обновление информации о фактической погоде в базе происходит ежечасно! Архивные данные за месяц целиком и за предыдущие месяцы Вы можете получить, выбрав интересующий диапазон дат из раскрывающегося списка и нажав кнопку "Ввод!".
Внимание! Архив погоды МЕТАР в базе сайта по станциям, не включенным в климатический монитор, хранится не более 60 дней. Нет смысла пытаться выбрать более раннюю дату.
*Определитесь, кто Вы:
Внимание! Время в таблицах - местное (без учета летнего времени). Для получения всемирного времени необходимо вычесть поправку, которая равна -5 ч.
Смотрите также архив погоды в соседних городах и на ближайших метеорологических станциях:
Партнеры нашего сайта:      
Пояснения к столбцам:
  • Ветер - указаны скорость ветра в м/с - средняя за 10 мин, порывы в срок и между сроками (в фигурных скобках) и направление, откуда дует ветер: С - северный,
  • СВ - северо-восточный, В - восточный, ЮВ - юго-восточный, Ю - южный, ЮЗ - юго-западный, З - западный, СЗ - северо-западный.
  • Видимость - горизонтальная дальность видимости в метрах или километрах. При видимости от 1 до 10 км при отсутствии осадков обычно наблюдается дымка, при ухудшении видимости до 1 км и менее - туман. В сухую погоду видимость может ухудшаться дымом, пылью или мглою.
  • Явления - указаны атмосферные явления, наблюдавшиеся в срок или в последний час перед сроком; фигурными скобками обозначены явления, наблюдавшиеся между сроками (за 1-3 часа до срока); квадратными скобками обозначены град или гололедные отложения с указанием их диаметра в мм.
  • Облачность - указаны через наклонную черту общая и нижняя облачность в баллах и высота нижней границы облаков в метрах; квадратными скобками обозначены формы облаков: Ci - перистые, Cs - перисто-слоистые, Cc - перисто-кучевые, Ac - высококучевые, As - высокослоистые, Sc - слоисто-кучевые, Ns - слоисто-дождевые, Cu - кучевые, Cb - кучево-дождевые. Подробнее классификацию облаков см. в Атласе облаков (PDF).
  • T - Температура воздуха - температура, измеренная на высоте 2 м над землей.
  • Td - Температура точки росы - температура, при понижении до которой содержащийся в воздухе водяной пар достигнет насыщения.
  • f - Относительная влажность воздуха - влажноcть воздуха, измеренная на высоте 2 м над землей.
  • Te - Эффективная температура - температура, которую ощущает одетый по сезону человек в тени. Характеристика душности погоды. При расчете учитывается влияние влажности воздуха и скорости ветра на теплоощущения человека.
  • Tes - Эффективная температура на солнце - температура, которую ощущает человек, с поправкой на солнечный нагрев. Характеристика знойности погоды. Зависит от высоты солнца над горизонтом, облачности и скорости ветра. Ночью, в пасмурную погоду, а также при ветре 12 м/с и более поправка равна нулю.
  • P - Атмосферное давление - приведенное к уровню моря атмосферное давление.
  • Po - Атмосферное давление - измеренное на уровне метеостанции атмосферное давление.
  • Tmin - Минимальная температура - минимум температуры воздуха на высоте 2 м над землей.
  • Tmax - Максимальная температура - максимум температуры воздуха на высоте 2 м над землей.
  • R - Количество осадков - Количество выпавших осадков за период времени, мм. При наведении курсора мыши на число - период времени, за который выпало указанное количество осадков.
  • R24 - Количество осадков - Количество выпавших осадков за 24 часа, мм.
  • S - Снежный покров - Высота снежного покрова, см. При наведении курсора мыши на число - состояние снежного покрова и степень покрытия местности в баллах.